Weather in Kolymbia

Greece     36°15′26″N   28°08′39″E
temp.,
°C
wind,
m/s
gust,
m/s
humid.,
%
clouds,
%
prec.,
mm/h
press.,
hPa
HPBL,
m
14 april, wed
wed1400:00+16ssw457062 0.0 1020396
03:00+15sse566894 0.0 1018431
06:00+15sse336824 0.0 1019495
09:00+16sse45666 0.0 1020698
12:00+17sse666671 0.0 1020729
15:00+17sse6668100 0.0 1019747
18:00+16sse5670100 0.0 1018703
21:00+16sse557299 0.0 1018546
15 april, thu
thu1500:00+16sse5674100 0.0 1018504
03:00+16se45745 0.0 1017497
06:00+16sse56745 0.0 1017537
09:00+16se66745 0.0 1018691
12:00+17se677396 0.0 1018706
15:00+17se66736 0.0 1017625
18:00+17se5676100 0.0 1016520
21:00+16sse3582100 0.0 1016293
16 april, fri
fri1600:00+16ese2382100 0.0 1016257
03:00+16ene238115 0.0 1015345
06:00+16ene338098 0.0 1015365
09:00+17e33756 0.0 1016420
12:00+17ese447590 0.0 1017429
15:00+17ese437444 0.0 1016355
18:00+18ese3272100 0.0 1016238
21:00+17ese1179100 0.0 101615
17 april, sat
sat1700:00+17ese4579100 0.0 1015164
03:00+17s2280100 0.0 101540
06:00+17e2279100 0.0 101544
09:00+18ese5877100 0.0 1015277
12:00+18ssw6972100 0.0 1018244
15:00+18sse5872100 0.0 1015227
18:00+18sse81274100 0.0 1015290
21:00+18se81475100 0.0 1013281
18 april, sun
sun1800:00+18se51076100 0.0 1013274
03:00+18s1179100 0.0 101513
06:00+18se51175100 0.0 1014197
09:00+19e1267100 0.0 101647
12:00+19se5870100 0.0 1017162
15:00+19ssw3469100 0.0 101672
18:00+19e3368100 0.0 101558
21:00+18ene3376100 0.0 101328